LEMUR 2 NATALIEMURRAY

导读 | 豆包AI

LEMUR 2 NATALIEMURRAY是美国Spire Global公司研制的LEMUR 2系列立方星,2018年12月27日自美国发射升空,运行于低地球轨道。作为低地球多用途接收器卫星,它配备GPS反射测量技术,可获取海面风速、浪高及土壤湿度等环境参数,同时具备海上交通监测、GPS干扰探测能力,为气象预报、气候研究提供实时高精度地球观测数据。

基本信息
目录编号:
43887
目录名称:
LEMUR 2 NATALIEMURRAY
国际标识:
2018-111M
轨道中心:
EARTH
卫星名称:
LEMUR 2 NATALIEMURRAY
卫星全名:
--
卫星状态:
已陨落 最后检测时间 2025-04-04
发射日期:
2018-12-27 UTC
国别 :
美国 (US)
星等 :
--
轨道信息
数据来源 国际轨道数据
星历时间: 2025-04-02T03:39:15+0800
轨道信息已过期347天
半长轴: 6546.611km
偏心率: 0.0008671
轨道倾角: 97.559°
近地点辐角 203.532°
升交点赤经 22.929°
平近点角 156.558°
近地点: 162.799km
远地点: 174.153km
周期: 87.859分钟
每日圈数: 16.389965
详细信息
使用方式:
暂无